Flag for U.S.A. Weather past 2 weeks in Elizabeth, New Jersey, U.S.A.

Now
63 °F

Partly cloudy.


Feels Like: 63 °F
Forecast: 51 / 60 °F
Wind: 9 mph from Southwest

Location: Newark International Airport

Current Time: Oct 25, 2014 at 9:32:22 PM

Latest Report: Oct 25, 2014 at 8:51 PM


Visibility: 10 mi

Pressure: 29.62 "Hg

Humidity: 50%

Dew point: 44 °F

Location of ElizabethLocation

Historic Weather in Elizabeth — Graph

°F

Elizabeth temperature yesterday

Maximum temperature yesterday: 68 °F (at 3:51 PM)
Minimum temperature yesterday: 50 °F (at 4:51 AM)
Average temperature yesterday: 58 °F

Past Weeks' High & Low Weather Summary

 TemperatureHumidityPressure
High77 °F (Oct 14, 12:51 PM)97% (Oct 11, 8:51 AM)30.34 "Hg (Oct 11, 8:51 AM)
Low40 °F (Oct 20, 3:51 AM)30% (Oct 12, 3:51 PM)29.57 "Hg (Oct 18, 1:51 PM)
Average59 °F71%29.93 "Hg
* Reported Oct 10 7:51 PM — Oct 25 7:51 PM, Elizabeth, Weather by CustomWeather, © 2014

Note: Actual official high and low records may vary slightly from our data, if they occured in-between our weather recording intervals... More about our weather records

Advertising

Elizabeth weather history for previous 24 hours

 ConditionsComfort  
Time TempWeatherWind HumidityBarometerVisibility
7:51 PM
Oct 25
64 °FPassing clouds.13 mph49%29.64 "Hg10 mi
6:51 PM63 °FScattered clouds.9 mph48%29.64 "Hg10 mi
5:51 PM65 °FScattered clouds.14 mph45%29.65 "Hg10 mi
4:51 PM67 °FScattered clouds.17 mph42%29.66 "Hg10 mi
3:51 PM69 °FScattered clouds.14 mph39%29.67 "Hg10 mi
2:51 PM69 °FScattered clouds.17 mph38%29.70 "Hg10 mi
1:51 PM68 °FScattered clouds.8 mph39%29.73 "Hg10 mi
12:51 PM66 °FScattered clouds.12 mph40%29.78 "Hg10 mi
11:51 AM63 °FPassing clouds.10 mph43%29.82 "Hg10 mi
10:51 AM60 °FPassing clouds.12 mph46%29.85 "Hg10 mi
9:51 AM56 °FPassing clouds.8 mph51%29.86 "Hg10 mi
8:51 AM52 °FPassing clouds.6 mph55%29.87 "Hg10 mi
7:51 AM49 °FPassing clouds.7 mph57%29.88 "Hg10 mi
6:51 AM48 °FPassing clouds.3 mph61%29.87 "Hg10 mi
5:51 AM50 °FPassing clouds.3 mph59%29.88 "Hg10 mi
4:51 AM52 °FPassing clouds.5 mph57%29.86 "Hg10 mi
3:51 AM52 °FPassing clouds.5 mph59%29.86 "Hg10 mi
2:51 AM53 °FPassing clouds.7 mph59%29.87 "Hg10 mi
1:51 AM54 °FPassing clouds.8 mph55%29.86 "Hg10 mi
12:51 AM55 °FPassing clouds.10 mph53%29.85 "Hg10 mi
11:51 PM
Oct 24
57 °FPassing clouds.12 mph51%29.85 "Hg10 mi
10:51 PM59 °FPassing clouds.12 mph49%29.84 "Hg10 mi
9:51 PM60 °FPassing clouds.12 mph49%29.83 "Hg10 mi
Weather by CustomWeather, © 2014

See weather overviewHow to use our weather pages